Time,TemperatureF,DewpointF,PressureIn,WindDirection,WindDirectionDegrees,WindSpeedMPH,WindSpeedGustMPH,Humidity,HourlyPrecipIn,Conditions,Clouds,dailyrainin,SoftwareType,DateUTC
2013-02-18 00:00:00,22.6,14.3,30.27,NNW,346,0.0,0.0,70,0.00,,,0.00,Wunderground v.1.15,2013-02-18 05:00:00,
2013-02-18 00:05:00,22.5,14.2,30.28,NNW,346,0.0,0.0,70,0.00,,,0.00,Wunderground v.1.15,2013-02-18 05:05:00,
2013-02-18 00:10:00,22.4,13.8,30.28,NNW,346,0.0,0.0,69,0.00,,,0.00,Wunderground v.1.15,2013-02-18 05:10:00,
2013-02-18 00:20:00,22.2,13.9,30.28,NNW,346,0.0,0.0,70,0.00,,,0.00,Wunderground v.1.15,2013-02-18 05:20:00,
2013-02-18 00:25:00,22.1,13.8,30.28,NNW,346,0.0,0.0,70,0.00,,,0.00,Wunderground v.1.15,2013-02-18 05:25:00,
2013-02-18 00:30:00,22.0,13.7,30.28,NNW,346,0.0,0.0,70,0.00,,,0.00,Wunderground v.1.15,2013-02-18 05:30:00,
2013-02-18 00:35:00,21.9,13.9,30.28,NNW,346,0.0,0.0,71,0.00,,,0.00,Wunderground v.1.15,2013-02-18 05:35:00,
2013-02-18 00:40:00,21.8,13.8,30.28,NNW,346,0.0,0.0,71,0.00,,,0.00,Wunderground v.1.15,2013-02-18 05:40:00,
2013-02-18 00:45:00,21.8,13.8,30.28,NNW,346,0.0,0.0,71,0.00,,,0.00,Wunderground v.1.15,2013-02-18 05:45:00,
2013-02-18 00:50:00,21.7,13.7,30.28,NNW,346,0.0,0.0,71,0.00,,,0.00,Wunderground v.1.15,2013-02-18 05:50:00,
2013-02-18 00:55:00,21.6,13.6,30.28,NNW,346,0.0,0.0,71,0.00,,,0.00,Wunderground v.1.15,2013-02-18 05:55:00,
2013-02-18 01:00:00,21.6,13.6,30.29,NNW,346,0.0,0.0,71,0.00,,,0.00,Wunderground v.1.15,2013-02-18 06:00:00,
2013-02-18 01:10:00,21.4,13.5,30.29,NNW,346,0.0,0.0,71,0.00,,,0.00,Wunderground v.1.15,2013-02-18 06:10:00,
2013-02-18 01:15:00,21.3,13.7,30.29,NNW,346,0.0,0.0,72,0.00,,,0.00,Wunderground v.1.15,2013-02-18 06:15:00,
2013-02-18 01:20:00,21.3,13.7,30.29,NNW,346,0.0,0.0,72,0.00,,,0.00,Wunderground v.1.15,2013-02-18 06:20:00,
2013-02-18 01:25:00,21.2,13.6,30.29,NNW,346,0.0,0.0,72,0.00,,,0.00,Wunderground v.1.15,2013-02-18 06:25:00,
2013-02-18 01:30:00,21.1,13.2,30.29,NNW,346,0.0,0.0,71,0.00,,,0.00,Wunderground v.1.15,2013-02-18 06:30:00,
2013-02-18 01:35:00,21.0,13.1,30.30,NNW,346,0.0,0.0,71,0.00,,,0.00,Wunderground v.1.15,2013-02-18 06:35:00,
2013-02-18 01:45:00,20.9,13.0,30.30,NNW,346,0.0,0.0,71,0.00,,,0.00,Wunderground v.1.15,2013-02-18 06:45:00,
2013-02-18 01:50:00,20.9,13.0,30.30,NNW,346,0.0,0.0,71,0.00,,,0.00,Wunderground v.1.15,2013-02-18 06:50:00,
2013-02-18 01:55:00,20.8,13.2,30.30,NNW,346,0.0,0.0,72,0.00,,,0.00,Wunderground v.1.15,2013-02-18 06:55:00,
2013-02-18 02:00:00,20.8,13.2,30.30,NNW,346,0.0,0.0,72,0.00,,,0.00,Wunderground v.1.15,2013-02-18 07:00:00,
2013-02-18 02:05:00,20.8,13.2,30.30,NNW,346,0.0,0.0,72,0.00,,,0.00,Wunderground v.1.15,2013-02-18 07:05:00,
2013-02-18 02:15:00,20.8,13.2,30.30,NNW,346,0.0,0.0,72,0.00,,,0.00,Wunderground v.1.15,2013-02-18 07:15:00,
2013-02-18 02:20:00,20.8,13.2,30.30,NNW,346,0.0,0.0,72,0.00,,,0.00,Wunderground v.1.15,2013-02-18 07:20:00,
2013-02-18 02:25:00,20.9,13.3,30.30,NNW,346,0.0,0.0,72,0.00,,,0.00,Wunderground v.1.15,2013-02-18 07:25:00,
2013-02-18 02:30:00,21.0,13.4,30.30,NNW,346,0.0,0.0,72,0.00,,,0.00,Wunderground v.1.15,2013-02-18 07:30:00,
2013-02-18 02:35:00,21.0,13.1,30.30,NNW,346,0.0,0.0,71,0.00,,,0.00,Wunderground v.1.15,2013-02-18 07:35:00,
2013-02-18 02:40:00,21.0,13.4,30.30,NNW,346,0.0,0.0,72,0.00,,,0.00,Wunderground v.1.15,2013-02-18 07:40:00,
2013-02-18 02:50:00,20.8,12.9,30.31,NNW,346,0.0,0.0,71,0.00,,,0.00,Wunderground v.1.15,2013-02-18 07:50:00,
2013-02-18 02:55:00,20.6,13.0,30.31,NNW,346,0.0,0.0,72,0.00,,,0.00,Wunderground v.1.15,2013-02-18 07:55:00,
2013-02-18 03:00:00,20.4,12.8,30.31,NNW,346,0.0,0.0,72,0.00,,,0.00,Wunderground v.1.15,2013-02-18 08:00:00,
2013-02-18 03:10:00,20.2,12.6,30.31,NNW,346,0.0,0.0,72,0.00,,,0.00,Wunderground v.1.15,2013-02-18 08:10:00,
2013-02-18 03:20:00,20.0,12.4,30.31,NNW,346,0.0,0.0,72,0.00,,,0.00,Wunderground v.1.15,2013-02-18 08:20:00,
2013-02-18 03:25:00,20.0,12.4,30.31,NNW,346,0.0,0.0,72,0.00,,,0.00,Wunderground v.1.15,2013-02-18 08:25:00,
2013-02-18 03:30:00,20.0,12.4,30.31,NNW,346,0.0,0.0,72,0.00,,,0.00,Wunderground v.1.15,2013-02-18 08:30:00,
2013-02-18 03:35:00,19.9,12.3,30.31,NNW,346,0.0,0.0,72,0.00,,,0.00,Wunderground v.1.15,2013-02-18 08:35:00,
2013-02-18 03:40:00,19.8,11.9,30.32,NNW,346,0.0,0.0,71,0.00,,,0.00,Wunderground v.1.15,2013-02-18 08:40:00,
2013-02-18 03:45:00,19.8,12.2,30.32,NNW,346,0.0,0.0,72,0.00,,,0.00,Wunderground v.1.15,2013-02-18 08:45:00,
2013-02-18 03:55:00,19.7,11.8,30.32,NNW,346,0.0,0.0,71,0.00,,,0.00,Wunderground v.1.15,2013-02-18 08:55:00,
2013-02-18 04:00:00,19.7,11.8,30.32,NNW,346,0.0,0.0,71,0.00,,,0.00,Wunderground v.1.15,2013-02-18 09:00:00,
2013-02-18 04:05:00,19.5,11.9,30.32,NNW,346,0.0,0.0,72,0.00,,,0.00,Wunderground v.1.15,2013-02-18 09:05:00,
2013-02-18 04:10:00,19.5,11.9,30.32,NNW,346,0.0,0.0,72,0.00,,,0.00,Wunderground v.1.15,2013-02-18 09:10:00,
2013-02-18 04:15:00,19.4,11.8,30.32,NNW,346,0.0,0.0,72,0.00,,,0.00,Wunderground v.1.15,2013-02-18 09:15:00,
2013-02-18 04:25:00,19.2,11.6,30.32,NNW,346,0.0,0.0,72,0.00,,,0.00,Wunderground v.1.15,2013-02-18 09:25:00,
2013-02-18 04:30:00,19.2,11.6,30.33,NNW,346,0.0,0.0,72,0.00,,,0.00,Wunderground v.1.15,2013-02-18 09:30:00,
2013-02-18 04:35:00,19.1,11.6,30.33,NNW,346,0.0,0.0,72,0.00,,,0.00,Wunderground v.1.15,2013-02-18 09:35:00,
2013-02-18 04:40:00,19.0,11.1,30.33,NNW,346,0.0,0.0,71,0.00,,,0.00,Wunderground v.1.15,2013-02-18 09:40:00,
2013-02-18 04:45:00,19.0,11.1,30.33,NNW,346,0.0,0.0,71,0.00,,,0.00,Wunderground v.1.15,2013-02-18 09:45:00,
2013-02-18 04:50:00,19.0,10.8,30.34,NNW,346,0.0,0.0,70,0.00,,,0.00,Wunderground v.1.15,2013-02-18 09:50:00,
2013-02-18 05:00:00,18.9,10.7,30.34,NNW,346,0.0,0.0,70,0.00,,,0.00,Wunderground v.1.15,2013-02-18 10:00:00,
2013-02-18 05:05:00,18.9,10.7,30.34,NNW,346,0.0,0.0,70,0.00,,,0.00,Wunderground v.1.15,2013-02-18 10:05:00,
2013-02-18 05:10:00,18.8,10.6,30.34,NNW,346,0.0,0.0,70,0.00,,,0.00,Wunderground v.1.15,2013-02-18 10:10:00,
2013-02-18 05:15:00,18.8,10.3,30.34,NNW,346,0.0,0.0,69,0.00,,,0.00,Wunderground v.1.15,2013-02-18 10:15:00,
2013-02-18 05:20:00,18.7,10.2,30.35,NNW,346,0.0,0.0,69,0.00,,,0.00,Wunderground v.1.15,2013-02-18 10:20:00,
2013-02-18 05:25:00,18.6,9.8,30.34,NNW,346,0.0,0.0,68,0.00,,,0.00,Wunderground v.1.15,2013-02-18 10:25:00,
2013-02-18 05:35:00,18.6,9.8,30.35,NNW,346,0.0,0.0,68,0.00,,,0.00,Wunderground v.1.15,2013-02-18 10:35:00,
2013-02-18 05:40:00,18.6,9.8,30.35,NNW,346,0.0,0.0,68,0.00,,,0.00,Wunderground v.1.15,2013-02-18 10:40:00,
2013-02-18 05:45:00,18.6,9.8,30.35,NNW,346,0.0,0.0,68,0.00,,,0.00,Wunderground v.1.15,2013-02-18 10:45:00,
2013-02-18 05:50:00,18.5,9.7,30.35,NNW,346,0.0,0.0,68,0.00,,,0.00,Wunderground v.1.15,2013-02-18 10:50:00,
2013-02-18 05:55:00,18.4,9.3,30.35,NNW,346,0.0,0.0,67,0.00,,,0.00,Wunderground v.1.15,2013-02-18 10:55:00,
2013-02-18 06:00:00,18.4,9.6,30.35,NNW,346,0.0,0.0,68,0.00,,,0.00,Wunderground v.1.15,2013-02-18 11:00:00,
2013-02-18 06:10:00,18.3,9.2,30.36,NNW,346,0.0,0.0,67,0.00,,,0.00,Wunderground v.1.15,2013-02-18 11:10:00,
2013-02-18 06:15:00,18.3,9.2,30.36,NNW,346,0.0,0.0,67,0.00,,,0.00,Wunderground v.1.15,2013-02-18 11:15:00,
2013-02-18 06:20:00,18.3,8.8,30.35,NNW,346,0.0,0.0,66,0.00,,,0.00,Wunderground v.1.15,2013-02-18 11:20:00,
2013-02-18 06:25:00,18.2,8.7,30.36,NNW,346,0.0,0.0,66,0.00,,,0.00,Wunderground v.1.15,2013-02-18 11:25:00,
2013-02-18 06:30:00,18.2,8.7,30.35,NNW,346,0.0,0.0,66,0.00,,,0.00,Wunderground v.1.15,2013-02-18 11:30:00,
2013-02-18 06:35:00,18.2,8.7,30.36,NNW,346,0.0,0.0,66,0.00,,,0.00,Wunderground v.1.15,2013-02-18 11:35:00,
2013-02-18 06:40:00,18.1,8.6,30.36,NNW,346,0.0,0.0,66,0.00,,,0.00,Wunderground v.1.15,2013-02-18 11:40:00,
2013-02-18 06:45:00,18.1,8.3,30.36,NNW,346,0.0,0.0,65,0.00,,,0.00,Wunderground v.1.15,2013-02-18 11:45:00,
2013-02-18 06:50:00,18.1,8.0,30.36,NNW,346,0.0,0.0,64,0.00,,,0.00,Wunderground v.1.15,2013-02-18 11:50:00,
2013-02-18 06:55:00,18.2,8.7,30.36,NNW,346,0.0,0.0,66,0.00,,,0.00,Wunderground v.1.15,2013-02-18 11:55:00,
2013-02-18 07:05:00,18.1,8.3,30.36,NNW,346,0.0,0.0,65,0.00,,,0.00,Wunderground v.1.15,2013-02-18 12:05:00,
2013-02-18 07:10:00,18.1,8.0,30.36,NNW,346,0.0,0.0,64,0.00,,,0.00,Wunderground v.1.15,2013-02-18 12:10:00,
2013-02-18 07:15:00,18.1,7.6,30.36,NNW,346,0.0,0.0,63,0.00,,,0.00,Wunderground v.1.15,2013-02-18 12:15:00,
2013-02-18 07:20:00,18.2,7.7,30.36,NNW,346,0.0,0.0,63,0.00,,,0.00,Wunderground v.1.15,2013-02-18 12:20:00,
2013-02-18 07:25:00,18.1,7.6,30.37,NNW,346,0.0,0.0,63,0.00,,,0.00,Wunderground v.1.15,2013-02-18 12:25:00,
2013-02-18 07:30:00,18.1,7.6,30.37,NNW,346,0.0,0.0,63,0.00,,,0.00,Wunderground v.1.15,2013-02-18 12:30:00,
2013-02-18 07:40:00,18.1,6.9,30.37,NNW,346,0.0,0.0,61,0.00,,,0.00,Wunderground v.1.15,2013-02-18 12:40:00,
2013-02-18 07:45:00,18.3,6.7,30.37,NNW,346,0.0,0.0,60,0.00,,,0.00,Wunderground v.1.15,2013-02-18 12:45:00,
2013-02-18 07:50:00,18.4,6.4,30.37,NNW,346,0.0,0.0,59,0.00,,,0.00,Wunderground v.1.15,2013-02-18 12:50:00,
2013-02-18 07:55:00,18.6,6.3,30.37,NNW,346,0.0,0.0,58,0.00,,,0.00,Wunderground v.1.15,2013-02-18 12:55:00,
2013-02-18 08:00:00,18.7,6.4,30.38,NNW,346,0.0,0.0,58,0.00,,,0.00,Wunderground v.1.15,2013-02-18 13:00:00,
2013-02-18 08:10:00,18.9,6.5,30.38,NNW,346,0.0,0.0,58,0.00,,,0.00,Wunderground v.1.15,2013-02-18 13:10:00,
2013-02-18 08:15:00,19.1,7.1,30.38,NNW,346,0.0,0.0,59,0.00,,,0.00,Wunderground v.1.15,2013-02-18 13:15:00,
2013-02-18 08:20:00,19.4,6.6,30.38,NNW,346,0.0,0.0,57,0.00,,,0.00,Wunderground v.1.15,2013-02-18 13:20:00,
2013-02-18 08:25:00,19.7,7.3,30.38,NNW,346,0.0,0.0,58,0.00,,,0.00,Wunderground v.1.15,2013-02-18 13:25:00,
2013-02-18 08:30:00,20.0,7.2,30.38,NNW,346,0.0,0.0,57,0.00,,,0.00,Wunderground v.1.15,2013-02-18 13:30:00,
2013-02-18 08:35:00,20.4,8.0,30.38,NNW,346,0.0,0.0,58,0.00,,,0.00,Wunderground v.1.15,2013-02-18 13:35:00,
2013-02-18 08:45:00,21.6,12.7,30.39,NNW,346,0.0,0.0,68,0.00,,,0.00,Wunderground v.1.15,2013-02-18 13:45:00,
2013-02-18 08:50:00,22.4,14.1,30.39,NNW,346,0.0,0.0,70,0.00,,,0.00,Wunderground v.1.15,2013-02-18 13:50:00,
2013-02-18 08:55:00,22.7,14.7,30.39,NNW,346,0.0,0.0,71,0.00,,,0.00,Wunderground v.1.15,2013-02-18 13:55:00,
2013-02-18 09:00:00,23.1,15.1,30.38,NNW,346,0.0,0.0,71,0.00,,,0.00,Wunderground v.1.15,2013-02-18 14:00:00,
2013-02-18 09:10:00,24.2,16.5,30.39,SW,231,0.0,0.0,72,0.00,,,0.00,Wunderground v.1.15,2013-02-18 14:10:00,
2013-02-18 09:15:00,24.8,17.1,30.39,SW,231,0.0,0.0,72,0.00,,,0.00,Wunderground v.1.15,2013-02-18 14:15:00,
2013-02-18 09:20:00,25.3,17.2,30.38,SW,231,0.0,0.0,71,0.00,,,0.00,Wunderground v.1.15,2013-02-18 14:20:00,
2013-02-18 09:25:00,25.8,17.7,30.38,SW,231,0.0,0.0,71,0.00,,,0.00,Wunderground v.1.15,2013-02-18 14:25:00,
2013-02-18 09:30:00,26.3,18.2,30.38,SW,231,0.0,0.0,71,0.00,,,0.00,Wunderground v.1.15,2013-02-18 14:30:00,
2013-02-18 09:35:00,26.9,18.4,30.39,SW,231,0.0,0.0,70,0.00,,,0.00,Wunderground v.1.15,2013-02-18 14:35:00,
2013-02-18 09:40:00,27.3,18.5,30.38,SW,231,0.0,0.0,69,0.00,,,0.00,Wunderground v.1.15,2013-02-18 14:40:00,
2013-02-18 09:50:00,28.8,18.9,30.39,SW,231,0.0,0.0,66,0.00,,,0.00,Wunderground v.1.15,2013-02-18 14:50:00,
2013-02-18 09:55:00,29.3,19.3,30.39,SW,231,0.0,0.0,66,0.00,,,0.00,Wunderground v.1.15,2013-02-18 14:55:00,
2013-02-18 10:00:00,29.8,19.5,30.39,SW,231,0.0,0.0,65,0.00,,,0.00,Wunderground v.1.15,2013-02-18 15:00:00,
2013-02-18 10:05:00,30.4,19.7,30.39,SW,231,0.0,0.0,64,0.00,,,0.00,Wunderground v.1.15,2013-02-18 15:05:00,
2013-02-18 10:10:00,30.9,19.4,30.39,SW,231,0.0,0.0,62,0.00,,,0.00,Wunderground v.1.15,2013-02-18 15:10:00,
2013-02-18 10:15:00,31.7,19.4,30.39,WSW,246,0.0,0.0,60,0.00,,,0.00,Wunderground v.1.15,2013-02-18 15:15:00,
2013-02-18 10:20:00,32.3,18.8,30.38,WSW,246,0.0,1.0,57,0.00,,,0.00,Wunderground v.1.15,2013-02-18 15:20:00,
2013-02-18 10:25:00,32.9,18.5,30.38,WSW,246,1.0,1.0,55,0.00,,,0.00,Wunderground v.1.15,2013-02-18 15:25:00,
2013-02-18 10:30:00,33.4,18.9,30.38,WSW,252,0.0,0.0,55,0.00,,,0.00,Wunderground v.1.15,2013-02-18 15:30:00,
2013-02-18 10:35:00,33.9,19.0,30.38,WSW,252,0.0,0.0,54,0.00,,,0.00,Wunderground v.1.15,2013-02-18 15:35:00,
2013-02-18 10:40:00,34.4,19.0,30.38,WSW,251,0.0,0.0,53,0.00,,,0.00,Wunderground v.1.15,2013-02-18 15:40:00,
2013-02-18 10:50:00,35.4,18.6,30.38,WSW,251,0.0,0.0,50,0.00,,,0.00,Wunderground v.1.15,2013-02-18 15:50:00,
2013-02-18 10:55:00,36.1,18.3,30.38,WSW,251,0.0,0.0,48,0.00,,,0.00,Wunderground v.1.15,2013-02-18 15:55:00,
2013-02-18 11:00:00,36.6,18.7,30.38,WSW,251,0.0,0.0,48,0.00,,,0.00,Wunderground v.1.15,2013-02-18 16:00:00,
2013-02-18 11:10:00,37.7,18.8,30.37,NW,309,0.0,1.0,46,0.00,,,0.00,Wunderground v.1.15,2013-02-18 16:10:00,
2013-02-18 11:15:00,38.3,19.3,30.37,WNW,287,1.0,1.0,46,0.00,,,0.00,Wunderground v.1.15,2013-02-18 16:15:00,
2013-02-18 11:25:00,39.2,19.6,30.37,NW,316,1.0,1.0,45,0.00,,,0.00,Wunderground v.1.15,2013-02-18 16:25:00,
2013-02-18 11:30:00,39.6,20.0,30.37,NW,316,0.0,0.0,45,0.00,,,0.00,Wunderground v.1.15,2013-02-18 16:30:00,
2013-02-18 11:35:00,40.0,20.3,30.37,NW,319,0.0,0.0,45,0.00,,,0.00,Wunderground v.1.15,2013-02-18 16:35:00,
2013-02-18 11:40:00,40.5,21.3,30.36,North,5,0.0,2.0,46,0.00,,,0.00,Wunderground v.1.15,2013-02-18 16:40:00,
2013-02-18 11:45:00,41.0,21.3,30.36,West,278,1.0,2.0,45,0.00,,,0.00,Wunderground v.1.15,2013-02-18 16:45:00,
2013-02-18 11:50:00,41.5,21.7,30.36,WNW,289,1.0,1.0,45,0.00,,,0.00,Wunderground v.1.15,2013-02-18 16:50:00,
2013-02-18 12:00:00,42.4,23.1,30.35,WNW,293,1.0,1.0,46,0.00,,,0.00,Wunderground v.1.15,2013-02-18 17:00:00,
2013-02-18 12:10:00,43.3,22.3,30.34,NNE,17,1.0,4.0,43,0.00,,,0.00,Wunderground v.1.15,2013-02-18 17:10:00,
2013-02-18 12:15:00,43.7,22.6,30.34,NW,317,1.0,4.0,43,0.00,,,0.00,Wunderground v.1.15,2013-02-18 17:15:00,
2013-02-18 12:20:00,44.2,23.1,30.34,NNE,26,1.0,3.0,43,0.00,,,0.00,Wunderground v.1.15,2013-02-18 17:20:00,
2013-02-18 12:25:00,44.5,22.8,30.34,North,11,1.0,3.0,42,0.00,,,0.00,Wunderground v.1.15,2013-02-18 17:25:00,
2013-02-18 12:35:00,45.0,22.7,30.33,NNW,328,1.0,2.0,41,0.00,,,0.00,Wunderground v.1.15,2013-02-18 17:35:00,
2013-02-18 12:40:00,45.2,22.9,30.33,NW,318,1.0,2.0,41,0.00,,,0.00,Wunderground v.1.15,2013-02-18 17:40:00,
2013-02-18 12:45:00,45.5,23.1,30.33,West,273,1.0,2.0,41,0.00,,,0.00,Wunderground v.1.15,2013-02-18 17:45:00,
2013-02-18 12:50:00,45.8,23.4,30.33,West,276,1.0,1.0,41,0.00,,,0.00,Wunderground v.1.15,2013-02-18 17:50:00,
2013-02-18 12:55:00,46.1,24.3,30.32,NNW,339,1.0,5.0,42,0.00,,,0.00,Wunderground v.1.15,2013-02-18 17:55:00,
2013-02-18 13:05:00,46.9,23.8,30.32,WSW,255,2.0,5.0,40,0.00,,,0.00,Wunderground v.1.15,2013-02-18 18:05:00,
2013-02-18 13:10:00,47.1,23.4,30.32,West,276,2.0,5.0,39,0.00,,,0.00,Wunderground v.1.15,2013-02-18 18:10:00,
2013-02-18 13:15:00,47.0,24.5,30.32,NNW,341,2.0,5.0,41,0.00,,,0.00,Wunderground v.1.15,2013-02-18 18:15:00,
2013-02-18 13:20:00,47.1,24.0,30.32,West,267,1.0,5.0,40,0.00,,,0.00,Wunderground v.1.15,2013-02-18 18:20:00,
2013-02-18 13:25:00,47.3,24.2,30.31,WNW,300,1.0,5.0,40,0.00,,,0.00,Wunderground v.1.15,2013-02-18 18:25:00,
2013-02-18 13:30:00,47.6,25.6,30.31,WNW,285,1.0,5.0,42,0.00,,,0.00,Wunderground v.1.15,2013-02-18 18:30:00,
2013-02-18 13:40:00,47.7,24.5,30.30,WNW,286,2.0,2.0,40,0.00,,,0.00,Wunderground v.1.15,2013-02-18 18:40:00,
2013-02-18 13:45:00,47.8,24.6,30.30,WSW,251,2.0,5.0,40,0.00,,,0.00,Wunderground v.1.15,2013-02-18 18:45:00,
2013-02-18 13:50:00,48.0,24.8,30.30,WSW,241,1.0,1.0,40,0.00,,,0.00,Wunderground v.1.15,2013-02-18 18:50:00,
2013-02-18 13:55:00,47.8,25.2,30.30,NNE,15,2.0,5.0,41,0.00,,,0.00,Wunderground v.1.15,2013-02-18 18:55:00,
2013-02-18 14:00:00,47.8,24.6,30.29,NNE,28,2.0,2.0,40,0.00,,,0.00,Wunderground v.1.15,2013-02-18 19:00:00,
2013-02-18 14:10:00,48.6,25.3,30.29,WNW,292,1.0,1.0,40,0.00,,,0.00,Wunderground v.1.15,2013-02-18 19:10:00,
2013-02-18 14:15:00,48.9,25.6,30.28,WNW,291,1.0,5.0,40,0.00,,,0.00,Wunderground v.1.15,2013-02-18 19:15:00,
2013-02-18 14:20:00,49.2,24.6,30.28,NW,309,1.0,5.0,38,0.00,,,0.00,Wunderground v.1.15,2013-02-18 19:20:00,
2013-02-18 14:25:00,49.4,26.1,30.28,NW,317,1.0,5.0,40,0.00,,,0.00,Wunderground v.1.15,2013-02-18 19:25:00,
2013-02-18 14:30:00,49.5,25.5,30.28,West,266,2.0,2.0,39,0.00,,,0.00,Wunderground v.1.15,2013-02-18 19:30:00,
2013-02-18 14:35:00,49.6,26.2,30.28,SSE,151,2.0,5.0,40,0.00,,,0.00,Wunderground v.1.15,2013-02-18 19:35:00,
2013-02-18 14:45:00,49.9,25.3,30.28,NW,319,2.0,5.0,38,0.00,,,0.00,Wunderground v.1.15,2013-02-18 19:45:00,
2013-02-18 14:50:00,50.0,25.4,30.28,NW,312,2.0,2.0,38,0.00,,,0.00,Wunderground v.1.15,2013-02-18 19:50:00,
2013-02-18 14:55:00,50.0,26.0,30.27,WSW,241,1.0,5.0,39,0.00,,,0.00,Wunderground v.1.15,2013-02-18 19:55:00,
2013-02-18 15:00:00,50.2,24.9,30.27,North,351,1.0,1.0,37,0.00,,,0.00,Wunderground v.1.15,2013-02-18 20:00:00,
2013-02-18 15:10:00,50.2,26.8,30.27,North,11,1.0,1.0,40,0.00,,,0.00,Wunderground v.1.15,2013-02-18 20:10:00,
2013-02-18 15:15:00,50.6,26.5,30.27,West,271,1.0,5.0,39,0.00,,,0.00,Wunderground v.1.15,2013-02-18 20:15:00,
2013-02-18 15:20:00,50.8,25.4,30.27,WNW,302,2.0,2.0,37,0.00,,,0.00,Wunderground v.1.15,2013-02-18 20:20:00,
2013-02-18 15:25:00,50.8,26.1,30.27,WSW,255,2.0,2.0,38,0.00,,,0.00,Wunderground v.1.15,2013-02-18 20:25:00,
2013-02-18 15:30:00,50.7,26.0,30.26,West,281,2.0,4.0,38,0.00,,,0.00,Wunderground v.1.15,2013-02-18 20:30:00,
2013-02-18 15:35:00,50.6,25.9,30.26,West,270,1.0,4.0,38,0.00,,,0.00,Wunderground v.1.15,2013-02-18 20:35:00,
2013-02-18 15:40:00,50.6,26.5,30.26,South,178,0.0,2.0,39,0.00,,,0.00,Wunderground v.1.15,2013-02-18 20:40:00,
2013-02-18 15:50:00,50.5,27.0,30.26,NW,315,1.0,1.0,40,0.00,,,0.00,Wunderground v.1.15,2013-02-18 20:50:00,
2013-02-18 15:55:00,50.4,25.1,30.26,WSW,253,2.0,3.0,37,0.00,,,0.00,Wunderground v.1.15,2013-02-18 20:55:00,
2013-02-18 16:00:00,50.3,25.0,30.26,WSW,247,2.0,4.0,37,0.00,,,0.00,Wunderground v.1.15,2013-02-18 21:00:00,
2013-02-18 16:05:00,50.1,27.3,30.26,WNW,288,2.0,4.0,41,0.00,,,0.00,Wunderground v.1.15,2013-02-18 21:05:00,
2013-02-18 16:10:00,49.9,25.9,30.26,WSW,238,2.0,4.0,39,0.00,,,0.00,Wunderground v.1.15,2013-02-18 21:10:00,
2013-02-18 16:20:00,49.6,26.2,30.26,WNW,296,1.0,1.0,40,0.00,,,0.00,Wunderground v.1.15,2013-02-18 21:20:00,
2013-02-18 16:25:00,49.6,26.8,30.26,WNW,296,1.0,4.0,41,0.00,,,0.00,Wunderground v.1.15,2013-02-18 21:25:00,
2013-02-18 16:30:00,49.6,26.8,30.26,WNW,300,1.0,1.0,41,0.00,,,0.00,Wunderground v.1.15,2013-02-18 21:30:00,
2013-02-18 16:35:00,49.4,27.2,30.26,WNW,300,0.0,4.0,42,0.00,,,0.00,Wunderground v.1.15,2013-02-18 21:35:00,
2013-02-18 16:40:00,49.3,27.7,30.26,WNW,300,0.0,4.0,43,0.00,,,0.00,Wunderground v.1.15,2013-02-18 21:40:00,
2013-02-18 16:45:00,49.1,26.4,30.26,WNW,292,1.0,4.0,41,0.00,,,0.00,Wunderground v.1.15,2013-02-18 21:45:00,
2013-02-18 16:55:00,48.5,27.0,30.25,West,269,1.0,4.0,43,0.00,,,0.00,Wunderground v.1.15,2013-02-18 21:55:00,
2013-02-18 17:00:00,48.4,27.5,30.25,NW,313,1.0,1.0,44,0.00,,,0.00,Wunderground v.1.15,2013-02-18 22:00:00,
2013-02-18 17:05:00,48.2,26.7,30.25,NW,304,1.0,4.0,43,0.00,,,0.00,Wunderground v.1.15,2013-02-18 22:05:00,
2013-02-18 17:10:00,47.9,27.0,30.25,North,5,1.0,4.0,44,0.00,,,0.00,Wunderground v.1.15,2013-02-18 22:10:00,
2013-02-18 17:15:00,47.5,27.2,30.25,NNW,346,0.0,4.0,45,0.00,,,0.00,Wunderground v.1.15,2013-02-18 22:15:00,
2013-02-18 17:25:00,46.6,27.4,30.25,NNW,346,0.0,4.0,47,0.00,,,0.00,Wunderground v.1.15,2013-02-18 22:25:00,
2013-02-18 17:30:00,46.5,25.7,30.25,West,270,0.0,4.0,44,0.00,,,0.00,Wunderground v.1.15,2013-02-18 22:30:00,
2013-02-18 17:35:00,46.7,26.5,30.25,West,259,1.0,4.0,45,0.00,,,0.00,Wunderground v.1.15,2013-02-18 22:35:00,
2013-02-18 17:40:00,46.6,26.9,30.25,West,259,1.0,1.0,46,0.00,,,0.00,Wunderground v.1.15,2013-02-18 22:40:00,
2013-02-18 17:45:00,46.1,26.4,30.25,West,259,0.0,4.0,46,0.00,,,0.00,Wunderground v.1.15,2013-02-18 22:45:00,
2013-02-18 17:50:00,45.8,27.2,30.25,WSW,257,0.0,4.0,48,0.00,,,0.00,Wunderground v.1.15,2013-02-18 22:50:00,
2013-02-18 17:55:00,45.3,26.2,30.25,WSW,257,0.0,4.0,47,0.00,,,0.00,Wunderground v.1.15,2013-02-18 22:55:00,
2013-02-18 18:00:00,44.8,25.8,30.26,WSW,257,0.0,0.0,47,0.00,,,0.00,Wunderground v.1.15,2013-02-18 23:00:00,
2013-02-18 18:10:00,43.9,25.5,30.25,NW,323,0.0,0.0,48,0.00,,,0.00,Wunderground v.1.15,2013-02-18 23:10:00,
2013-02-18 18:15:00,43.5,25.1,30.25,NW,323,0.0,0.0,48,0.00,,,0.00,Wunderground v.1.15,2013-02-18 23:15:00,
2013-02-18 18:20:00,43.1,24.7,30.25,NW,323,0.0,0.0,48,0.00,,,0.00,Wunderground v.1.15,2013-02-18 23:20:00,
2013-02-18 18:30:00,42.2,24.9,30.26,NW,323,0.0,0.0,50,0.00,,,0.00,Wunderground v.1.15,2013-02-18 23:30:00,
2013-02-18 18:35:00,41.8,24.0,30.26,NW,323,0.0,0.0,49,0.00,,,0.00,Wunderground v.1.15,2013-02-18 23:35:00,
2013-02-18 18:40:00,41.6,23.8,30.26,NW,323,0.0,0.0,49,0.00,,,0.00,Wunderground v.1.15,2013-02-18 23:40:00,
2013-02-18 18:45:00,41.3,24.5,30.26,NW,323,0.0,0.0,51,0.00,,,0.00,Wunderground v.1.15,2013-02-18 23:45:00,
2013-02-18 18:50:00,41.0,24.7,30.26,NW,323,0.0,0.0,52,0.00,,,0.00,Wunderground v.1.15,2013-02-18 23:50:00,
2013-02-18 18:55:00,40.7,24.4,30.26,NW,323,0.0,0.0,52,0.00,,,0.00,Wunderground v.1.15,2013-02-18 23:55:00,
2013-02-18 19:05:00,40.1,24.8,30.25,NW,323,0.0,1.0,54,0.00,,,0.00,Wunderground v.1.15,2013-02-19 00:05:00,
2013-02-18 19:10:00,39.8,24.5,30.25,NW,323,0.0,1.0,54,0.00,,,0.00,Wunderground v.1.15,2013-02-19 00:10:00,
2013-02-18 19:15:00,39.4,25.0,30.25,NW,323,0.0,1.0,56,0.00,,,0.00,Wunderground v.1.15,2013-02-19 00:15:00,
2013-02-18 19:20:00,39.1,24.7,30.25,NW,323,0.0,1.0,56,0.00,,,0.00,Wunderground v.1.15,2013-02-19 00:20:00,
2013-02-18 19:25:00,38.7,24.8,30.25,NW,323,0.0,1.0,57,0.00,,,0.00,Wunderground v.1.15,2013-02-19 00:25:00,
2013-02-18 19:35:00,38.0,25.3,30.25,NW,323,0.0,1.0,60,0.00,,,0.00,Wunderground v.1.15,2013-02-19 00:35:00,
2013-02-18 19:40:00,37.6,25.0,30.25,NW,323,0.0,1.0,60,0.00,,,0.00,Wunderground v.1.15,2013-02-19 00:40:00,
2013-02-18 19:45:00,37.2,24.6,30.25,NW,323,0.0,1.0,60,0.00,,,0.00,Wunderground v.1.15,2013-02-19 00:45:00,
2013-02-18 19:50:00,36.9,24.3,30.25,NW,323,0.0,1.0,60,0.00,,,0.00,Wunderground v.1.15,2013-02-19 00:50:00,
2013-02-18 19:55:00,36.6,24.8,30.25,NW,323,0.0,1.0,62,0.00,,,0.00,Wunderground v.1.15,2013-02-19 00:55:00,
2013-02-18 20:00:00,36.4,24.6,30.25,NW,323,0.0,1.0,62,0.00,,,0.00,Wunderground v.1.15,2013-02-19 01:00:00,
2013-02-18 20:10:00,35.8,24.8,30.24,NW,323,0.0,1.0,64,0.00,,,0.00,Wunderground v.1.15,2013-02-19 01:10:00,
2013-02-18 20:15:00,35.4,24.4,30.24,NW,323,0.0,1.0,64,0.00,,,0.00,Wunderground v.1.15,2013-02-19 01:15:00,
2013-02-18 20:20:00,35.1,24.1,30.24,NW,323,0.0,1.0,64,0.00,,,0.00,Wunderground v.1.15,2013-02-19 01:20:00,
2013-02-18 20:25:00,34.7,24.1,30.24,NW,323,0.0,1.0,65,0.00,,,0.00,Wunderground v.1.15,2013-02-19 01:25:00,
2013-02-18 20:30:00,34.4,24.2,30.24,NW,323,0.0,1.0,66,0.00,,,0.00,Wunderground v.1.15,2013-02-19 01:30:00,
2013-02-18 20:40:00,33.9,24.1,30.24,NW,323,0.0,1.0,67,0.00,,,0.00,Wunderground v.1.15,2013-02-19 01:40:00,
2013-02-18 20:50:00,33.4,24.0,30.24,NW,323,0.0,1.0,68,0.00,,,0.00,Wunderground v.1.15,2013-02-19 01:50:00,
2013-02-18 20:55:00,33.3,23.9,30.24,NW,323,0.0,1.0,68,0.00,,,0.00,Wunderground v.1.15,2013-02-19 01:55:00,
2013-02-18 21:00:00,33.1,23.7,30.24,NW,323,0.0,0.0,68,0.00,,,0.00,Wunderground v.1.15,2013-02-19 02:00:00,
2013-02-18 21:10:00,33.0,23.9,30.24,NW,323,0.0,0.0,69,0.00,,,0.00,Wunderground v.1.15,2013-02-19 02:10:00,
2013-02-18 21:15:00,33.1,24.0,30.24,NW,323,0.0,0.0,69,0.00,,,0.00,Wunderground v.1.15,2013-02-19 02:15:00,
2013-02-18 21:20:00,33.1,24.0,30.24,NW,323,0.0,0.0,69,0.00,,,0.00,Wunderground v.1.15,2013-02-19 02:20:00,
2013-02-18 21:25:00,33.3,23.9,30.24,NW,323,0.0,0.0,68,0.00,,,0.00,Wunderground v.1.15,2013-02-19 02:25:00,
2013-02-18 21:30:00,33.5,24.1,30.24,NW,323,0.0,0.0,68,0.00,,,0.00,Wunderground v.1.15,2013-02-19 02:30:00,
2013-02-18 21:35:00,33.7,24.6,30.24,NW,323,0.0,0.0,69,0.00,,,0.00,Wunderground v.1.15,2013-02-19 02:35:00,
2013-02-18 21:40:00,33.9,24.4,30.24,NW,323,0.0,0.0,68,0.00,,,0.00,Wunderground v.1.15,2013-02-19 02:40:00,
2013-02-18 21:45:00,34.1,24.3,30.23,NW,323,0.0,0.0,67,0.00,,,0.00,Wunderground v.1.15,2013-02-19 02:45:00,
2013-02-18 21:50:00,34.2,24.7,30.23,NW,323,0.0,0.0,68,0.00,,,0.00,Wunderground v.1.15,2013-02-19 02:50:00,
2013-02-18 21:55:00,34.4,24.9,30.23,NW,323,0.0,0.0,68,0.00,,,0.00,Wunderground v.1.15,2013-02-19 02:55:00,
2013-02-18 22:00:00,34.5,24.3,30.22,NW,323,0.0,1.0,66,0.00,,,0.00,Wunderground v.1.15,2013-02-19 03:00:00,
2013-02-18 22:05:00,34.6,24.4,30.22,NW,323,0.0,1.0,66,0.00,,,0.00,Wunderground v.1.15,2013-02-19 03:05:00,
2013-02-18 22:15:00,35.1,24.5,30.22,NW,323,0.0,1.0,65,0.00,,,0.00,Wunderground v.1.15,2013-02-19 03:15:00,
2013-02-18 22:20:00,35.4,24.8,30.21,NW,323,0.0,1.0,65,0.00,,,0.00,Wunderground v.1.15,2013-02-19 03:20:00,
2013-02-18 22:25:00,35.6,25.0,30.22,NW,323,0.0,1.0,65,0.00,,,0.00,Wunderground v.1.15,2013-02-19 03:25:00,
2013-02-18 22:30:00,35.8,24.4,30.21,NW,323,0.0,1.0,63,0.00,,,0.00,Wunderground v.1.15,2013-02-19 03:30:00,
2013-02-18 22:35:00,36.2,25.2,30.22,NW,323,0.0,1.0,64,0.00,,,0.00,Wunderground v.1.15,2013-02-19 03:35:00,
2013-02-18 22:40:00,36.3,24.9,30.22,NW,323,0.0,1.0,63,0.00,,,0.00,Wunderground v.1.15,2013-02-19 03:40:00,
2013-02-18 22:45:00,36.4,25.0,30.22,NW,323,0.0,1.0,63,0.00,,,0.00,Wunderground v.1.15,2013-02-19 03:45:00,
2013-02-18 22:55:00,36.6,25.2,30.22,SW,227,0.0,1.0,63,0.00,,,0.00,Wunderground v.1.15,2013-02-19 03:55:00,
2013-02-18 23:05:00,37.3,25.1,30.21,WSW,238,1.0,2.0,61,0.00,,,0.00,Wunderground v.1.15,2013-02-19 04:05:00,
2013-02-18 23:10:00,38.0,25.7,30.21,WSW,238,1.0,1.0,61,0.00,,,0.00,Wunderground v.1.15,2013-02-19 04:10:00,
2013-02-18 23:15:00,38.0,25.7,30.21,West,275,0.0,1.0,61,0.00,,,0.00,Wunderground v.1.15,2013-02-19 04:15:00,
2013-02-18 23:20:00,37.9,26.0,30.20,West,275,0.0,2.0,62,0.00,,,0.00,Wunderground v.1.15,2013-02-19 04:20:00,
2013-02-18 23:30:00,38.5,25.0,30.20,SW,236,1.0,1.0,58,0.00,,,0.00,Wunderground v.1.15,2013-02-19 04:30:00,
2013-02-18 23:35:00,38.9,26.2,30.19,SW,236,1.0,2.0,60,0.00,,,0.00,Wunderground v.1.15,2013-02-19 04:35:00,
2013-02-18 23:40:00,39.1,25.1,30.19,WSW,254,1.0,1.0,57,0.00,,,0.00,Wunderground v.1.15,2013-02-19 04:40:00,
2013-02-18 23:45:00,39.3,25.7,30.20,West,268,1.0,1.0,58,0.00,,,0.00,Wunderground v.1.15,2013-02-19 04:45:00,
2013-02-18 23:50:00,39.3,24.9,30.20,WSW,241,1.0,3.0,56,0.00,,,0.00,Wunderground v.1.15,2013-02-19 04:50:00,
2013-02-18 23:55:00,39.7,25.3,30.20,WSW,241,1.0,3.0,56,0.00,,,0.00,Wunderground v.1.15,2013-02-19 04:55:00,